User: anonymous   Login
Location: Mentone
(34.5413°N, 85.5351°W)
Time: 06:46:04
(UTC-05:00)
Language:

ADEOS Rocket - Orbit

View from above orbital plane
View from above orbital plane
View from above satellite
View from above satellite

Ground track
Ground track

The orbit data is extracted from the following two-line orbital elements,

1 24279U 96046C   16121.57521211  .00000006  00000-0  55824-4 0  9998
2 24279  98.6993 111.7180 0299043 261.1304 211.2043 13.47047360968699
Epoch (UTC): 30 April 2016 13:48:18
Eccentricity: 0.0299043
inclination: 98.6993°
perigee height: 860 km
apogee height: 1306 km
right ascension of ascending node: 111.7180°
argument of perigee: 261.1304°
revolutions per day: 13.47047360
mean anomaly at epoch: 211.2043°
orbit number at epoch: 96869

The dashed part of the orbit path shows where the satellite is in the earth's shadow,  

DLR